DW2728 Weather Reports


time (UTC)temp
C
wind
direction
speed
KPH
gust
KPH
rain 1hr
cm
rain 24hr
cm
rain mn
cm
humidity
%
barometer
mb
20260505011804 23 103 6.4 8.0 0.00 0.00 0.00 28 996.3
20260505010804 23 120 4.8 14.5 0.00 0.00 0.00 28 996.2
20260505005825 24 107 11.3 14.5 0.00 0.00 0.00 28 996.0
20260505004803 24 120 8.0 17.7 0.00 0.00 0.00 29 996.1
20260505003804 25 125 11.3 20.9 0.00 0.00 0.00 28 996.0
20260505002803 25 131 12.9 20.9 0.00 0.00 0.00 28 996.0
20260505001804 25 128 11.3 20.9 0.00 0.00 0.00 29 996.2
20260505000803 25 127 9.7 22.5 0.00 0.00 0.00 28 996.2
20260504235804 26 132 17.7 24.1 0.00 0.00 0.00 27 996.4
20260504234803 26 140 3.2 11.3 0.00 0.00 0.00 22 996.6
20260504233804 27 97 8.0 11.3 0.00 0.00 0.00 24 996.6
20260504232804 27 309 0.0 3.2 0.00 0.00 0.00 22 996.7
20260504231804 27 335 0.0 1.6 0.00 0.00 0.00 22 996.7
20260504230804 27 182 0.0 1.6 0.00 0.00 0.00 22 996.8
20260504225804 27 252 0.0 9.7 0.00 0.00 0.00 22 996.9
20260504224804 27 88 1.6 4.8 0.00 0.00 0.00 22 996.9
20260504223804 27 180 0.0 11.3 0.00 0.00 0.00 22 996.9
20260504222804 27 286 0.0 8.0 0.00 0.00 0.00 22 996.9
20260504221803 27 349 3.2 16.1 0.00 0.00 0.00 23 997.0
20260504220825 26 291 4.8 24.1 0.00 0.00 0.00 21 997.4
20260504215803 26 66 11.3 29.0 0.00 0.00 0.00 23 997.3
20260504214804 26 90 12.9 20.9 0.00 0.00 0.00 23 997.1
20260504213803 26 140 4.8 27.4 0.00 0.00 0.00 22 997.2
20260504212804 26 142 16.1 25.7 0.00 0.00 0.00 24 997.2
20260504211803 26 155 16.1 29.0 0.00 0.00 0.00 25 997.5
20260504210804 26 157 11.3 20.9 0.00 0.00 0.00 22 997.5
20260504205803 27 121 11.3 30.6 0.00 0.00 0.00 21 997.3
20260504204804 28 222 6.4 12.9 0.00 0.00 0.00 18 997.4
20260504203803 28 195 1.6 4.8 0.00 0.00 0.00 19 997.3
20260504202804 28 358 3.2 14.5 0.00 0.00 0.00 20 997.4
20260504201804 28 301 3.2 22.5 0.00 0.00 0.00 21 997.5
20260504200804 28 215 3.2 9.7 0.00 0.00 0.00 21 997.7
20260504195825 27 118 6.4 29.0 0.00 0.00 0.00 20 997.8
20260504194804 27 189 9.7 20.9 0.00 0.00 0.00 23 998.1
20260504193825 26 107 17.7 24.1 0.00 0.00 0.00 23 998.0
20260504192803 27 99 16.1 20.9 0.00 0.00 0.00 23 998.0
20260504191803 27 74 12.9 20.9 0.00 0.00 0.00 22 998.0
20260504190803 27 88 14.5 19.3 0.00 0.00 0.00 22 998.0
20260504185804 27 78 9.7 22.5 0.00 0.00 0.00 23 998.0
20260504184803 27 56 16.1 22.5 0.00 0.00 0.00 23 998.2
20260504183825 27 57 12.9 20.9 0.00 0.00 0.00 21 998.4
20260504182824 27 104 12.9 20.9 0.00 0.00 0.00 22 998.5
20260504181803 28 86 4.8 14.5 0.00 0.00 0.00 22 998.6
20260504180825 28 90 6.4 17.7 0.00 0.00 0.00 23 998.6
20260504175804 28 65 11.3 19.3 0.00 0.00 0.00 22 998.8
20260504174804 28 60 12.9 24.1 0.00 0.00 0.00 25 999.1
20260504173803 28 64 14.5 20.9 0.00 0.00 0.00 25 999.2
20260504172804 28 34 14.5 20.9 0.00 0.00 0.00 24 999.2
20260504171803 28 48 12.9 20.9 0.00 0.00 0.00 25 999.2
20260504170803 27 49 12.9 25.7 0.00 0.00 0.00 27 999.4
20260504150804 25 288 1.6 3.2 0.00 0.00 0.00 34 1000.0
20260504140803 19 293 1.6 6.4 0.00 0.00 0.00 51 1000.6
20260504130804 11 292 3.2 8.0 0.00 0.00 0.00 72 1000.6
20260504081804 7 299 3.2 6.4 0.00 0.00 0.00 71 1000.7
20260504080803 8 295 1.6 3.2 0.00 0.00 0.00 69 1000.7
20260504045803 12 18 4.8 9.7 0.00 0.00 0.00 57 1001.8
20260504044803 12 15 4.8 8.0 0.00 0.00 0.00 55 1001.9
20260504043803 12 19 6.4 8.0 0.00 0.00 0.00 54 1002.0
20260504042803 12 44 6.4 9.7 0.00 0.00 0.00 53 1002.2
20260504041803 13 58 6.4 12.9 0.00 0.00 0.00 52 1002.2
20260504040803 13 47 8.0 12.9 0.00 0.00 0.00 52 1002.3
20260504035804 13 45 8.0 11.3 0.00 0.00 0.00 51 1002.3
20260504034803 14 57 8.0 11.3 0.00 0.00 0.00 50 1002.4
20260504033803 15 61 6.4 11.3 0.00 0.00 0.00 48 1002.4
20260504032803 15 75 8.0 11.3 0.00 0.00 0.00 48 1002.5
20260504030804 15 65 6.4 16.1 0.00 0.00 0.00 46 1002.2
20260504025803 15 66 6.4 11.3 0.00 0.00 0.00 44 1002.3
20260504024804 16 57 8.0 11.3 0.00 0.00 0.00 42 1002.2
20260504023803 17 58 8.0 12.9 0.00 0.00 0.00 38 1002.3
20260504022824 18 54 8.0 12.9 0.00 0.00 0.00 36 1002.3
20260504021824 19 54 9.7 16.1 0.00 0.00 0.00 35 1002.3
20260504020804 20 35 6.4 9.7 0.00 0.00 0.00 34 1002.1
20260504015803 20 25 6.4 9.7 0.00 0.00 0.00 32 1002.1
20260504014803 21 36 6.4 9.7 0.00 0.00 0.00 31 1002.1
20260504013824 22 47 6.4 8.0 0.00 0.00 0.00 29 1002.1
20260504012803 22 55 4.8 8.0 0.00 0.00 0.00 29 1002.2